Regional Weather Roundup
Issued by NWS State College, PA

Home | Current Version | Previous Version | Text Only | Print | Product List | Glossary Off
Versions: 1 2 3 4 5 6 7 8 9 10 11 12 13 14 15 16 17 18 19 20 21 22 23 24 25 26 27 28 29 30 31 32 33 34 35 36 37 38 39 40 41 42 43 44 45 46 47 48 49 50

000
ASUS41 KCTP 251003
RWRCTP

REGIONAL WEATHER ROUNDUP
NATIONAL WEATHER SERVICE STATE COLLEGE PA
600 AM EDT WED APR 25 2018

Note: "fair" indicates few or no clouds below 12,000 feet with no
significant weather and/or obstructions to visibility.

* = STATION THAT DOES NOT REPORT PRECIPITATION /E.G. RAIN...SNOW...ETC/
    THUNDER OR FOG.

PAZ002>004-007>009-013>016-020>023-029>032-251100-
WESTERN PENNSYLVANIA

CITY           SKY/WX    TMP DP  RH WIND       PRES   REMARKS
ERIE           LGT RAIN  49  47  93 NE5       29.88S FOG
MEADVILLE      CLOUDY    49  48  97 CALM      29.86F
FRANKLIN*      CLOUDY    48  46  93 E3        29.87F
NEW CASTLE     CLOUDY    50  50 100 NE3       29.86F
BEAVER COUNTY  NOT AVBL
BUTLER*        CLOUDY    49  47  93 E5        29.85F
PITTSBURGH INT CLOUDY    50  49  96 CALM      29.84S
PITTSBURGH     CLOUDY    49  48  97 CALM      29.83F
INDIANA*       CLOUDY    50  48  93 E5        29.88F
LATROBE        FAIR      50  48  93 NE3       29.84F
WASHINGTON CO* CLOUDY    49  48  97 CALM      29.86S
$$

PAZ004>006-010>012-017>019-024>028-033>037-041-042-045-046-049>053-251100-
CENTRAL PENNSYLVANIA

CITY           SKY/WX    TMP DP  RH WIND       PRES   REMARKS
BRADFORD       CLOUDY    48  45  89 SE7       29.88F
DUBOIS         CLOUDY    48  47  96 E6        29.85F
CLEARFIELD     CLOUDY    48  47  96 NE6       29.87F
JOHNSTOWN      CLOUDY    47  45  93 CALM      29.84S FOG
ALTOONA        CLOUDY    50  47  89 NE8       29.85F
STATE COLLEGE  CLOUDY    48  48 100 NE3       29.87F FOG
WILLIAMSPORT   LGT RAIN  51  49  92 CALM      29.88F FOG
SELINSGROVE    CLOUDY    50  49  96 NW5       29.88F
FT INDIANTOWN  LGT RAIN  52  52 100 NE6       29.87F FOG
CAPITAL CITY   LGT RAIN  54  32  43 E6        29.85F
HARRISBURG     LGT RAIN  53  51  93 CALM      29.84F
YORK           CLOUDY    53  53 100 E6        29.84F FOG
$$

PAZ038>040-043-044-047-048-054-055-060>062-067>071-251100-
EASTERN PENNSYLVANIA

CITY           SKY/WX    TMP DP  RH WIND       PRES   REMARKS
SCRANTON       LGT RAIN  50  49  96 N8        29.90F
MOUNT POCONO   RAIN      46  46 100 E10G18    29.92F FOG
ALLENTOWN      LGT RAIN  55  51  86 E12       29.89F FOG
QUAKERTOWN*    CLOUDY    54  54 100 VRB7      29.89F FOG
READING        HVY RAIN  55  55 100 VRB5      29.85F FOG
LANCASTER      RAIN      54  53  97 NE6       29.86S FOG
COATESVILLE    LGT RAIN  54  54 100 E13G20    29.86F
POTTSTOWN      LGT RAIN  53  53 100 E5        29.89F FOG
BLUE BELL      CLOUDY    54  54 100 E9        29.89F
DOYLESTOWN     LGT RAIN  54  53  97 CALM      29.89F
WILLOW GROVE   NOT AVBL
NORTH PHILA    CLOUDY    57  54  89 E10       29.90F FOG
PHILADELPHIA   LGT RAIN  55  54  96 E12       29.87F
$$




USA.gov is the U.S. government's official web portal to all federal, state and local government web resources and services.